When you browse on this site, cookies collect data to enhance your experience and personalize the content and advertising you see.
Visit our Privacy Policy to learn more. By continuing to use the site, you agree to this use of cookies and data.

Stündliche Wetter Makuni

Heute, 20 September, Sonntag

Zeit Temperatur Niederschläge Wind Luftdruck Luftfeuchtigkeit
00:00 +6°C° 0 mm 2 m/S 749 mmHg 92%
01:00 +5°C° 0 mm 2 m/S 749 mmHg 94%
02:00 +5°C° 0 mm 2 m/S 750 mmHg 97%
03:00 +5°C° 0 mm 2 m/S 750 mmHg 97%
04:00 +5°C° 0 mm 2 m/S 750 mmHg 97%
05:00 +5°C° 0 mm 2 m/S 750 mmHg 97%
06:00 +6°C° 0 mm 2 m/S 751 mmHg 93%
07:00 +7°C° 0 mm 2 m/S 751 mmHg 89%
08:00 +8°C° 0 mm 3 m/S 751 mmHg 85%
09:00 +9°C° 0 mm 3 m/S 751 mmHg 76%
10:00 +11°C° 0 mm 3 m/S 752 mmHg 68%
11:00 +13°C° 0 mm 3 m/S 752 mmHg 60%
12:00 +13°C° 0 mm 3 m/S 752 mmHg 59%
13:00 +13°C° 0 mm 3 m/S 751 mmHg 58%
14:00 +14°C° 0 mm 3 m/S 751 mmHg 58%
15:00 +14°C° 0 mm 2 m/S 751 mmHg 63%
16:00 +13°C° 0 mm 2 m/S 751 mmHg 69%
17:00 +13°C° 0 mm 1 m/S 751 mmHg 74%
18:00 +10°C° 0 mm 2 m/S 751 mmHg 79%
19:00 +9°C° 0 mm 2 m/S 751 mmHg 84%
20:00 +7°C° 0 mm 2 m/S 751 mmHg 89%
21:00 +7°C° 0 mm 2 m/S 751 mmHg 90%
22:00 +6°C° 0 mm 2 m/S 751 mmHg 92%
23:00 +6°C° 0 mm 2 m/S 751 mmHg 94%

Morgen, 21 September, Montag

Zeit Temperatur Niederschläge Wind Luftdruck Luftfeuchtigkeit
00:00 +6°C° 0 mm 2 m/S 751 mmHg 93%
01:00 +6°C° 0 mm 2 m/S 751 mmHg 93%
02:00 +6°C° 0 mm 2 m/S 750 mmHg 93%
03:00 +6°C° 0 mm 2 m/S 750 mmHg 93%
04:00 +6°C° 0 mm 2 m/S 750 mmHg 93%
05:00 +6°C° 0 mm 2 m/S 750 mmHg 94%
06:00 +7°C° 0 mm 3 m/S 750 mmHg 89%
07:00 +8°C° 0 mm 3 m/S 750 mmHg 85%
08:00 +9°C° 0 mm 3 m/S 750 mmHg 80%
09:00 +10°C° 0 mm 3 m/S 750 mmHg 76%
10:00 +12°C° 0 mm 4 m/S 750 mmHg 71%
11:00 +14°C° 0 mm 4 m/S 749 mmHg 67%
12:00 +15°C° 0 mm 4 m/S 749 mmHg 66%
13:00 +17°C° 0 mm 4 m/S 749 mmHg 65%
14:00 +18°C° 0 mm 4 m/S 749 mmHg 64%
15:00 +17°C° 0 mm 3 m/S 749 mmHg 70%
16:00 +17°C° 0 mm 3 m/S 749 mmHg 76%
17:00 +16°C° 0 mm 2 m/S 748 mmHg 82%
18:00 +15°C° 0 mm 2 m/S 748 mmHg 86%
19:00 +13°C° 0 mm 3 m/S 748 mmHg 89%
20:00 +12°C° 0 mm 3 m/S 748 mmHg 93%
21:00 +12°C° 0 mm 3 m/S 748 mmHg 93%
22:00 +12°C° 0 mm 3 m/S 748 mmHg 94%
23:00 +12°C° 0 mm 3 m/S 748 mmHg 94%

übermorgen, 22 September, Dienstag

Zeit Temperatur Niederschläge Wind Luftdruck Luftfeuchtigkeit
00:00 +11°C° 0 mm 3 m/S 748 mmHg 93%
01:00 +11°C° 0 mm 3 m/S 748 mmHg 93%
02:00 +11°C° 0 mm 3 m/S 748 mmHg 93%
03:00 +11°C° 0 mm 3 m/S 747 mmHg 93%
04:00 +10°C° 0 mm 3 m/S 747 mmHg 93%
05:00 +10°C° 0 mm 3 m/S 747 mmHg 93%
06:00 +11°C° 0 mm 4 m/S 747 mmHg 88%
07:00 +12°C° 0 mm 4 m/S 747 mmHg 83%
08:00 +13°C° 0 mm 4 m/S 747 mmHg 79%
09:00 +14°C° 0 mm 4 m/S 747 mmHg 73%
10:00 +17°C° 0 mm 4 m/S 747 mmHg 66%
11:00 +19°C° 0 mm 4 m/S 747 mmHg 60%
12:00 +19°C° 0 mm 4 m/S 747 mmHg 60%
13:00 +20°C° 0 mm 4 m/S 747 mmHg 59%
14:00 +21°C° 0 mm 4 m/S 747 mmHg 58%
15:00 +20°C° 0 mm 4 m/S 747 mmHg 65%
16:00 +19°C° 0 mm 3 m/S 747 mmHg 72%
17:00 +18°C° 0 mm 2 m/S 746 mmHg 78%
18:00 +16°C° 0 mm 2 m/S 747 mmHg 84%
19:00 +15°C° 0 mm 2 m/S 747 mmHg 89%
20:00 +14°C° 0 mm 2 m/S 747 mmHg 94%
21:00 +13°C° 0 mm 2 m/S 747 mmHg 95%
22:00 +13°C° 0 mm 2 m/S 747 mmHg 95%
23:00 +13°C° 0 mm 1 m/S 747 mmHg 95%

23 September, Mittwoch

Zeit Temperatur Niederschläge Wind Luftdruck Luftfeuchtigkeit
00:00 +12°C° 0 mm 1 m/S 747 mmHg 95%
01:00 +12°C° 0 mm 2 m/S 747 mmHg 96%
02:00 +12°C° 0 mm 2 m/S 747 mmHg 96%
03:00 +12°C° 0 mm 2 m/S 747 mmHg 96%
04:00 +12°C° 0 mm 2 m/S 747 mmHg 96%
05:00 +10°C° 0 mm 2 m/S 747 mmHg 96%
06:00 +12°C° 0 mm 2 m/S 747 mmHg 92%
07:00 +13°C° 0 mm 2 m/S 747 mmHg 88%
08:00 +15°C° 0 mm 2 m/S 747 mmHg 84%
09:00 +16°C° 0 mm 3 m/S 747 mmHg 77%
10:00 +18°C° 0 mm 3 m/S 747 mmHg 70%
11:00 +20°C° 0 mm 3 m/S 747 mmHg 63%
12:00 +21°C° 0 mm 3 m/S 747 mmHg 59%
13:00 +21°C° 0 mm 3 m/S 747 mmHg 55%
14:00 +22°C° 0 mm 4 m/S 746 mmHg 51%
15:00 +20°C° 0 mm 3 m/S 746 mmHg 58%
16:00 +19°C° 0 mm 3 m/S 746 mmHg 64%
17:00 +18°C° 0 mm 2 m/S 746 mmHg 71%
18:00 +16°C° 0 mm 2 m/S 746 mmHg 74%
19:00 +14°C° 0 mm 3 m/S 746 mmHg 76%
20:00 +13°C° 0 mm 3 m/S 746 mmHg 79%
21:00 +12°C° 0 mm 3 m/S 746 mmHg 78%
22:00 +12°C° 0 mm 3 m/S 746 mmHg 76%
23:00 +13°C° 0 mm 2 m/S 746 mmHg 75%

24 September, Donnerstag

Zeit Temperatur Niederschläge Wind Luftdruck Luftfeuchtigkeit
00:00 +12°C° 0 mm 2 m/S 746 mmHg 75%
01:00 +12°C° 0 mm 2 m/S 746 mmHg 74%
02:00 +12°C° 0 mm 2 m/S 746 mmHg 74%
03:00 +10°C° 0 mm 3 m/S 746 mmHg 73%
04:00 +10°C° 0 mm 3 m/S 746 mmHg 73%
05:00 +10°C° 0 mm 3 m/S 746 mmHg 72%
06:00 +11°C° 0 mm 3 m/S 746 mmHg 69%
07:00 +12°C° 0 mm 3 m/S 746 mmHg 65%
08:00 +12°C° 0 mm 3 m/S 746 mmHg 62%
09:00 +14°C° 0 mm 3 m/S 746 mmHg 59%
10:00 +17°C° 0 mm 3 m/S 746 mmHg 56%
11:00 +19°C° 0 mm 3 m/S 746 mmHg 52%
12:00 +19°C° 0 mm 3 m/S 746 mmHg 52%
13:00 +20°C° 0 mm 3 m/S 746 mmHg 52%
14:00 +20°C° 0 mm 4 m/S 746 mmHg 52%
15:00 +19°C° 0 mm 3 m/S 746 mmHg 59%
16:00 +18°C° 0 mm 3 m/S 746 mmHg 65%
17:00 +17°C° 0 mm 3 m/S 746 mmHg 71%
18:00 +16°C° 0 mm 3 m/S 746 mmHg 72%
19:00 +14°C° 0 mm 3 m/S 746 mmHg 74%
20:00 +13°C° 0 mm 3 m/S 746 mmHg 76%
21:00 +13°C° 0 mm 3 m/S 746 mmHg 77%
22:00 +12°C° 0 mm 3 m/S 746 mmHg 79%
23:00 +12°C° 0 mm 3 m/S 746 mmHg 81%

25 September, Freitag

Zeit Temperatur Niederschläge Wind Luftdruck Luftfeuchtigkeit
00:00 +12°C° 0 mm 3 m/S 746 mmHg 80%
01:00 +11°C° 0 mm 3 m/S 746 mmHg 79%
02:00 +11°C° 0 mm 3 m/S 746 mmHg 79%
03:00 +11°C° 0 mm 3 m/S 746 mmHg 78%
04:00 +11°C° 0 mm 3 m/S 746 mmHg 76%
05:00 +11°C° 0 mm 3 m/S 746 mmHg 75%
06:00 +12°C° 0 mm 3 m/S 746 mmHg 71%
07:00 +13°C° 0 mm 3 m/S 746 mmHg 67%
08:00 +13°C° 0 mm 3 m/S 746 mmHg 63%
09:00 +16°C° 0 mm 3 m/S 746 mmHg 60%
10:00 +18°C° 0 mm 3 m/S 746 mmHg 57%
11:00 +19°C° 0 mm 3 m/S 746 mmHg 55%
12:00 +20°C° 0 mm 3 m/S 745 mmHg 53%
13:00 +21°C° 0 mm 3 m/S 745 mmHg 52%
14:00 +22°C° 0 mm 4 m/S 745 mmHg 51%
15:00 +20°C° 0 mm 3 m/S 745 mmHg 57%
16:00 +19°C° 0 mm 3 m/S 745 mmHg 63%
17:00 +18°C° 0 mm 3 m/S 744 mmHg 69%
18:00 +17°C° 0 mm 3 m/S 744 mmHg 71%
19:00 +16°C° 0 mm 3 m/S 744 mmHg 73%
20:00 +14°C° 0 mm 3 m/S 744 mmHg 75%
21:00 +14°C° 0 mm 3 m/S 744 mmHg 75%
22:00 +14°C° 0 mm 3 m/S 744 mmHg 76%
23:00 +13°C° 0 mm 3 m/S 744 mmHg 76%
Mehr zeigen